[[{"header":{"parameterUnit":"m.s-1","parameterCategory":1,"la1":30.2991,"la2":30.254,"lo1":-89.0895,"lo2":-89.0444,"dy":0.0017,"dx":0.0017,"nx":28,"ny":28,"refTime":"2025-11-07T09:00:00:Z","depth":0,"parameterNumber":2,"parameterNumberName":"U-component_of_WINDS"},"data":[0,0,0,0,0,0,0,0,0,0,0,0,0,0,0,0,0,0,0,0,0,0,0,0,0,0,0,0,0,0,0,0,0,0,0,0,0,0,0,0,0,0,0,0,0,0,0,0,0,0,0,0,0,0,0,0,0,0,-2.3337,-2.3338,0,-2.3421,-2.3422,-2.3423,-2.3422,-2.3421,-2.342,-2.3419,-2.3502,-2.3505,-2.3508,0,0,0,0,0,0,0,0,0,0,0,0,0,-2.3174,-2.3177,-2.3337,-2.3338,-2.3339,-2.3421,-2.3422,-2.3423,-2.3423,-2.3421,-2.342,-2.3419,-2.3501,-2.3505,-2.3509,0,0,0,0,0,0,0,0,0,0,0,0,0,-2.325,-2.3178,-2.3337,-2.3349,-2.3351,-2.342,-2.3422,-2.3423,-2.3423,-2.3421,-2.342,-2.3418,-2.35,-2.3504,-2.3509,-2.3571,0,0,-2.3524,-2.3526,0,0,0,0,0,0,0,0,-2.3245,-2.3256,-2.3346,-2.3348,-2.335,-2.341,-2.3394,-2.3473,-2.3423,-2.3395,-2.3419,-2.3417,-2.3472,-2.3479,-2.3498,-2.3575,-2.3579,-2.3524,-2.3527,-2.3529,-2.3531,0,0,0,0,0,0,0,-2.324,-2.3252,-2.337,-2.3347,-2.335,-2.3349,-2.3358,-2.3409,-2.3442,-2.3398,-2.3398,-2.3408,-2.3473,-2.3494,-2.35,-2.358,-2.3524,-2.3528,-2.3531,-2.3533,-2.3711,-2.3712,0,0,0,0,0,0,-2.3233,-2.3248,-2.3367,-2.3372,-2.3293,-2.3353,-2.3363,-2.3392,-2.3441,-2.3447,-2.3409,-2.3408,-2.3486,-2.3495,-2.3503,-2.3578,-2.3529,-2.3534,-2.3537,-2.3709,-2.3711,-2.3713,0,0,0,0,0,0,-2.3229,-2.3243,-2.3364,-2.331,-2.3325,-2.3358,-2.339,-2.3395,-2.3415,-2.345,-2.3456,-2.3425,-2.3485,-2.3497,-2.3554,-2.3581,-2.3536,-2.354,-2.3707,-2.3709,-2.3712,-2.3729,0,0,0,0,0,0,-2.3225,-2.3242,-2.3267,-2.3311,-2.3328,-2.3414,-2.3392,-2.3397,-2.3424,-2.3423,-2.3466,-2.3471,-2.3485,-2.3547,-2.3559,-2.3587,-2.3544,-2.3704,-2.3708,-2.3711,-2.3726,-2.3732,-2.3737,0,0,0,0,0,-2.3219,-2.3268,-2.3268,-2.3283,-2.336,-2.3416,-2.3426,-2.3441,-2.3426,-2.345,-2.3473,-2.347,-2.3577,-2.3553,-2.3567,-2.3596,-2.3703,-2.3707,-2.3711,-2.3724,-2.3731,-2.3737,0,0,0,0,0,0,-2.3225,-2.3274,-2.3275,-2.334,-2.3374,-2.3416,-2.3447,-2.3449,-2.3487,-2.3484,-2.3501,-2.351,-2.3568,-2.3588,-2.3561,-2.3658,-2.3638,-2.3645,-2.3643,-2.365,-2.3655,-2.3648,-2.3548,0,0,0,0,0,-2.3235,-2.3277,-2.3317,-2.337,-2.3388,-2.3415,-2.344,-2.3449,-2.3484,-2.3498,-2.3525,-2.3559,-2.3599,-2.3626,-2.3666,-2.373,-2.3738,-2.3757,-2.3762,-2.3766,-2.3771,-2.3805,-2.3813,-2.3726,-2.3726,-2.3726,0,0,-2.3254,-2.3285,-2.3311,-2.3373,-2.34,-2.3442,-2.3427,-2.3472,-2.3503,-2.3505,-2.3561,-2.3582,-2.362,-2.3681,-2.3709,-2.37,-2.3798,-2.3771,-2.3775,-2.3778,-2.381,-2.3819,-2.3826,-2.3729,-2.3729,-2.3728,0,0,-2.3309,-2.3339,-2.3386,-2.3414,-2.3456,-2.3474,-2.3485,-2.3527,-2.3541,-2.3598,-2.36,-2.3637,-2.3707,-2.3734,-2.3758,-2.3824,-2.3822,-2.3837,-2.3864,-2.3897,-2.3904,-2.391,-2.3932,-2.394,-2.3842,-2.3842,-2.3842,0,-2.3327,-2.3392,-2.341,-2.3456,-2.3482,-2.3486,-2.3533,-2.356,-2.3612,-2.363,-2.3619,-2.3707,-2.3734,-2.38,-2.3816,-2.3835,-2.3847,-2.3831,-2.3901,-2.3908,-2.3914,-2.3935,-2.3943,-2.3843,-2.3843,-2.3843,-2.3843,0,-2.3411,-2.3456,-2.3489,-2.3541,-2.3571,-2.3617,-2.364,-2.3669,-2.3675,-2.3694,-2.3751,-2.3783,-2.3829,-2.3846,-2.3852,-2.3913,-2.3906,-2.3898,-2.3877,-2.3923,-2.3943,-2.3951,-2.3845,-2.3845,-2.3844,-2.3844,0,0,-2.3472,-2.3534,-2.3545,-2.3568,-2.3615,-2.365,-2.3696,-2.3741,-2.3765,-2.3801,-2.3839,-2.3899,-2.3892,-2.3918,-2.3928,-2.3957,-2.4005,-2.3946,-2.3947,-2.3954,-2.4072,-2.4076,-2.4086,-2.4005,-2.4007,-2.4008,-2.4068,0,-2.3532,-2.3615,-2.3632,-2.3703,-2.3744,-2.3749,-2.3789,-2.3821,-2.384,-2.3876,-2.3897,-2.3938,-2.3927,-2.3942,-2.3972,-2.3993,-2.4029,-2.3989,-2.4039,-2.4041,-2.4027,-2.4096,-2.4101,-2.4156,-2.4077,-2.4078,-2.4079,0,-2.3612,-2.3651,-2.3727,-2.3768,-2.3785,-2.3821,-2.3864,-2.3899,-2.3936,-2.3947,-2.3977,-2.3983,-2.403,-2.4009,-2.4072,-2.4045,-2.4066,-2.408,-2.4083,-2.4086,-2.4061,-2.41,-2.4174,-2.4182,-2.4092,-2.4091,-2.409,0,-2.3647,-2.3718,-2.3773,-2.3792,-2.3842,-2.3867,-2.3888,-2.3924,-2.395,-2.3987,-2.4004,-2.4046,-2.4068,-2.41,-2.4118,-2.4101,-2.418,-2.416,-2.4189,-2.4188,-2.4204,-2.4202,-2.4281,-2.4221,-2.4221,-2.422,-2.422,0,-2.3711,-2.3756,-2.3789,-2.3822,-2.3872,-2.3891,-2.3941,-2.3962,-2.3993,-2.403,-2.4037,-2.407,-2.4092,-2.4129,-2.4143,-2.4192,-2.4203,-2.4212,-2.4215,-2.4211,-2.4209,-2.4224,-2.422,-2.4223,-2.4222,-2.4222,-2.4221,0,-2.3757,-2.3781,-2.384,-2.3883,-2.3895,-2.393,-2.3966,-2.3997,-2.4016,-2.4062,-2.4074,-2.4103,-2.4147,-2.4168,-2.4221,-2.4231,-2.4286,-2.4288,-2.4274,-2.4275,-2.4302,-2.4298,-2.4391,-2.4403,-2.4337,-2.4337,-2.4338,0,-2.3795,-2.3831,-2.3877,-2.3903,-2.3925,-2.3966,-2.3993,-2.4013,-2.404,-2.4085,-2.4111,-2.4155,-2.419,-2.4259,-2.4284,-2.4325,-2.4326,-2.4356,-2.4332,-2.4327,-2.4325,-2.4322,-2.4324,-2.4359,-2.436,-2.4361,-2.4361,0,-2.386,-2.387,-2.3909,-2.3953,-2.3985,-2.402,-2.4054,-2.4074,-2.4099,-2.4129,-2.4174,-2.4202,-2.4257,-2.43,-2.4343,-2.4364,-2.4366,-2.4369,-2.4377,-2.4372,-2.4362,-2.4366,-2.4284,-2.4366,-2.4365,-2.4365,-2.4365,-2.4365,-2.3902,-2.3933,-2.3971,-2.4014,-2.4042,-2.4074,-2.4106,-2.4129,-2.4167,-2.4214,-2.4223,-2.427,-2.4305,-2.4363,-2.4386,-2.4422,-2.4415,-2.4428,-2.4431,-2.4433,-2.4434,-2.4358,-2.443,-2.443,-2.443,-2.443,-2.443,0,-2.3965,-2.399,-2.403,-2.4078,-2.4111,-2.4113,-2.415,-2.4178,-2.422,-2.4253,-2.4288,-2.4339,-2.4381,-2.441,-2.4452,-2.4475,-2.4477,-2.4485,-2.4483,-2.4487,-2.4438,-2.4426,-2.4483,-2.4483,-2.4483,-2.4483,-2.4483,-2.4483,-2.4002,-2.4055,-2.4069,-2.4135,-2.4159,-2.4206,-2.4228,-2.4256,-2.4283,-2.434,-2.4375,-2.4394,-2.4425,-2.4469,-2.4507,-2.4514,-2.4529,-2.4537,-2.4544,-2.4497,-2.4491,-2.4486,-2.4474,-2.454,-2.454,-2.4589,-2.459,-2.459]},{"header":{"parameterUnit":"m.s-1","parameterCategory":1,"la1":30.2991,"la2":30.254,"lo1":-89.0895,"lo2":-89.0444,"dy":0.0017,"dx":0.0017,"nx":28,"ny":28,"refTime":"2025-11-07T09:00:00:Z","depth":0,"parameterNumber":3,"parameterNumberName":"V-component_of_WINDS"},"data":[0,0,0,0,0,0,0,0,0,0,0,0,0,0,0,0,0,0,0,0,0,0,0,0,0,0,0,0,0,0,0,0,0,0,0,0,0,0,0,0,0,0,0,0,0,0,0,0,0,0,0,0,0,0,0,0,0,0,1.5208,1.521,0,1.5377,1.5379,1.5381,1.5399,1.5397,1.5395,1.5394,1.5572,1.5578,1.5585,0,0,0,0,0,0,0,0,0,0,0,0,0,1.4908,1.4913,1.5208,1.521,1.5212,1.5377,1.5379,1.5382,1.5399,1.5397,1.5395,1.5393,1.557,1.5578,1.5585,0,0,0,0,0,0,0,0,0,0,0,0,0,1.5054,1.4915,1.5207,1.524,1.5245,1.5377,1.538,1.5382,1.54,1.5397,1.5394,1.5392,1.5568,1.5577,1.5586,1.5698,0,0,1.5616,1.562,0,0,0,0,0,0,0,0,1.5045,1.5065,1.5233,1.5238,1.5244,1.5364,1.5339,1.5488,1.54,1.5341,1.5394,1.5391,1.5506,1.552,1.5558,1.5706,1.5714,1.5616,1.5622,1.5626,1.5629,0,0,0,0,0,0,0,1.5035,1.5058,1.5275,1.5236,1.5242,1.525,1.5268,1.5368,1.5436,1.5346,1.5348,1.5367,1.5508,1.5548,1.5562,1.5717,1.5616,1.5625,1.5631,1.5634,1.5973,1.5976,0,0,0,0,0,0,1.5018,1.5049,1.527,1.528,1.5136,1.5257,1.5277,1.5328,1.5435,1.5449,1.5369,1.5368,1.5533,1.5551,1.5568,1.571,1.5626,1.5635,1.5641,1.597,1.5974,1.5977,0,0,0,0,0,0,1.5011,1.5037,1.5263,1.5165,1.5194,1.5265,1.5322,1.5333,1.5373,1.5453,1.5466,1.5398,1.5532,1.5555,1.5667,1.5716,1.564,1.5648,1.5966,1.5971,1.5975,1.5992,0,0,0,0,0,0,1.5003,1.5035,1.5075,1.5166,1.5199,1.5355,1.5325,1.5338,1.5389,1.5389,1.5483,1.5496,1.5532,1.5653,1.5676,1.5728,1.5656,1.5962,1.5968,1.5974,1.5987,1.5997,1.6005,0,0,0,0,0,1.4992,1.5073,1.5077,1.5104,1.5251,1.5358,1.5378,1.5416,1.5393,1.5437,1.5489,1.5493,1.5707,1.5664,1.5691,1.5746,1.5959,1.5966,1.5973,1.5983,1.5995,1.6005,0,0,0,0,0,0,1.4986,1.5085,1.5091,1.5203,1.5272,1.5361,1.5416,1.5426,1.5504,1.55,1.5546,1.5568,1.5679,1.5724,1.5674,1.5864,1.5831,1.5844,1.583,1.5841,1.585,1.5837,1.5664,0,0,0,0,0,1.4998,1.5075,1.5158,1.5249,1.5283,1.5344,1.5392,1.5416,1.549,1.5519,1.5579,1.5653,1.5737,1.5792,1.5873,1.5994,1.6018,1.6047,1.6055,1.6062,1.6073,1.6146,1.6161,1.6001,1.6001,1.6001,0,0,1.5023,1.5087,1.5132,1.525,1.5306,1.5387,1.5368,1.5453,1.5516,1.5533,1.5643,1.569,1.5775,1.5894,1.5949,1.5935,1.6123,1.6072,1.6076,1.6084,1.6155,1.6171,1.6184,1.6006,1.6005,1.6004,0,0,1.5111,1.5165,1.5249,1.5307,1.5393,1.5434,1.5454,1.5543,1.5575,1.5686,1.5702,1.5779,1.5922,1.5984,1.6034,1.6152,1.6161,1.6178,1.6224,1.6295,1.6307,1.6319,1.6365,1.638,1.6189,1.6189,1.6189,0,1.5131,1.5252,1.5292,1.5378,1.5432,1.5452,1.554,1.5595,1.5704,1.5742,1.5724,1.5909,1.5967,1.6103,1.6132,1.6171,1.62,1.6167,1.6302,1.6314,1.6325,1.637,1.6387,1.619,1.619,1.619,1.619,0,1.5276,1.536,1.5418,1.5523,1.5584,1.567,1.5727,1.5784,1.5804,1.5849,1.5965,1.6037,1.6136,1.617,1.619,1.6311,1.63,1.6292,1.626,1.6342,1.6385,1.6402,1.6193,1.6192,1.6192,1.6191,0,0,1.536,1.549,1.5511,1.5562,1.5661,1.5728,1.5819,1.5916,1.5966,1.6042,1.6122,1.6246,1.6241,1.6298,1.6326,1.6388,1.6483,1.6374,1.6376,1.6394,1.6626,1.6633,1.6651,1.649,1.6493,1.6496,1.662,0,1.5461,1.5621,1.5662,1.5799,1.5881,1.5905,1.5985,1.6056,1.6102,1.618,1.6231,1.6319,1.6304,1.6339,1.6402,1.6458,1.6531,1.645,1.6568,1.6572,1.6547,1.6673,1.6679,1.6793,1.6637,1.664,1.6642,0,1.5598,1.5679,1.5824,1.5919,1.5955,1.6025,1.6121,1.6194,1.6278,1.6307,1.6374,1.6398,1.6499,1.6462,1.6604,1.6548,1.66,1.6636,1.6641,1.6654,1.6612,1.6692,1.6829,1.6847,1.6668,1.6666,1.6664,0,1.565,1.5794,1.5902,1.5944,1.6055,1.6106,1.6155,1.6236,1.6294,1.6379,1.6418,1.6513,1.6565,1.6641,1.6692,1.666,1.6831,1.6798,1.6861,1.686,1.6896,1.6893,1.7045,1.6926,1.6926,1.6926,1.6925,0,1.5758,1.5847,1.5927,1.5992,1.6095,1.6144,1.6245,1.6296,1.637,1.6449,1.6476,1.655,1.6613,1.6697,1.6738,1.6852,1.6875,1.6904,1.6914,1.6903,1.6899,1.6938,1.6932,1.693,1.6929,1.6928,1.6928,0,1.5832,1.5888,1.6007,1.6105,1.6132,1.6203,1.6289,1.6356,1.6404,1.6505,1.6532,1.6608,1.671,1.6768,1.6896,1.6924,1.7051,1.7057,1.7022,1.7027,1.7089,1.7083,1.7272,1.7301,1.7161,1.7162,1.7163,0,1.5897,1.5967,1.6073,1.6128,1.6179,1.6266,1.6326,1.6379,1.6441,1.6547,1.6603,1.6706,1.6791,1.6953,1.7022,1.7121,1.7131,1.7191,1.7146,1.7134,1.7136,1.7132,1.7141,1.7198,1.7199,1.72,1.7201,0,1.6009,1.6036,1.612,1.6216,1.6287,1.6366,1.6444,1.6488,1.6555,1.6624,1.6728,1.6795,1.6927,1.7031,1.7138,1.7192,1.721,1.7215,1.7236,1.7225,1.7203,1.7219,1.7045,1.721,1.7209,1.7208,1.7208,1.7208,1.6083,1.6148,1.6235,1.633,1.6395,1.6469,1.6538,1.6597,1.6684,1.6795,1.6823,1.6934,1.7023,1.7168,1.7226,1.7316,1.7306,1.7335,1.7343,1.7349,1.7353,1.7188,1.7336,1.7335,1.7335,1.7335,1.7335,0,1.6199,1.6257,1.6344,1.6454,1.653,1.654,1.6629,1.6693,1.679,1.6871,1.6956,1.7079,1.7182,1.726,1.7367,1.7424,1.7436,1.7451,1.7448,1.7461,1.7354,1.7327,1.744,1.744,1.744,1.744,1.744,1.744,1.6268,1.638,1.6418,1.6565,1.6623,1.6731,1.6782,1.6853,1.6918,1.7054,1.714,1.719,1.7273,1.7387,1.7483,1.7504,1.7543,1.7558,1.7581,1.7479,1.7468,1.7457,1.7432,1.7565,1.7565,1.768,1.7681,1.7682]}]]